Regional Weather Roundup
Issued by NWS Pendleton, OR

Home | Current Version | Previous Version | Text Only | Print | Product List | Glossary On
Versions: 1 2 3 4 5 6 7 8 9 10 11 12 13 14 15 16 17 18 19 20 21 22 23 24 25 26 27 28 29 30 31 32 33 34 35 36 37 38 39 40 41 42 43 44 45 46 47 48 49 50
000
ASUS46 KPDT 221925
RWRPDT
PENDLETON REGIONAL WEATHER ROUNDUP
NATIONAL WEATHER SERVICE PENDLETON OREGON
1200 PM PDT FRI AUG 22 2014

NOTE: FAIR INDICATES FEW OR NO CLOUDS BELOW 12,000 FEET WITH NO
SIGNIFICANT WEATHER AND/OR OBSTRUCTIONS TO VISIBILITY.

# INDICATES UNOFFICIAL STATION AND DATA

WAZ520-222010-
EAST SLOPES OF WASHINGTON CASCADES

CITY            SKY/WX      TMP DP  RH  WIND    PRES   REMARKS
#CLE ELUM HS    N/A         71  47  42  W5      29.95F
#CLE ELUM 2NW   N/A         69  43  39  SW5     N/A
#CLE ELUM LAKE  N/A         68  47  47  CALM    29.92F
#CLIFFDEL 2NW   N/A         68  45  44  CALM    N/A
#GLENWOOD       N/A         73  54  51  SW1     29.94F
#NELSON         N/A         70  50  49  W1      29.95F
#NELSON 3SW     N/A         66  50  56  N1      30.13F
#NILE           N/A         73  47  40  W1      29.21F
#RONALD 2NW     N/A         67  50  54  SW2     29.89F
#TEANAWAY 4NE   N/A         72  53  51  CALM    N/A
#TROUT LAKE 1NE N/A         71  47  42  CALM    29.94F
$$

WAZ521-222010-
SIMCOE HIGHLANDS

CITY            SKY/WX      TMP DP  RH  WIND    PRES   REMARKS
#BICKLETON HS   N/A         64  39  40  N7      30.06S
#CENTERVILLE 4W N/A         74  48  40  SW5     29.75F
#CENTERVILLE 1SWN/A         72  46  39  SW6     29.91S
#GOLDENDALE     N/A         71  43  36  NW2     N/A
#GOLDENDALE 1NE N/A         72  39  30  S3      N/A
#GOLDENDALE 1S  N/A         74  48  40  W2      29.96F
#GOLDENDALE 5WNWN/A         N/A N/A N/A W2      29.90F
#GOODNOE HILLS  N/A         80  47  31  SE2     29.92S
#LYLE 6NE       N/A         70  52  53  SW5     29.92S
$$

WAZ026-222010-
KITTITAS VALLEY

CITY            SKY/WX      TMP DP  RH  WIND    PRES   REMARKS
ELLENSBURG AP   SUNNY       77  46  33  S6      29.99F
#ELLENSBURG CWU N/A         74  47  38  E5      29.89F
#ELLENSBURG 3NE N/A         72  51  48  CALM    30.00S
#ELLENSBURG     N/A         79  50  36  SE1     N/A
#KITTITAS 3S    N/A         72  51  48  CALM    29.91F
#THORP 6N       N/A         71  46  41  N1      29.95S
$$

WAZ027-222010-
YAKIMA VALLEY

CITY            SKY/WX      TMP DP  RH  WIND    PRES   REMARKS
SUNNYSIDE AP    PTCLDY      73  52  48  CALM    29.97F
YAKIMA AIRPORT  MOCLDY      74  47  38  W3      29.98F
YAKIMA-VAGABOND MOCLDY      73  46  38  VRB2    29.99F
#COWICHE 1N     N/A         71  50  47  SE2     30.16S
#DONALD 2NE     N/A         83  45  26  NE3     30.30S
#GRANDVIEW      N/A         70  54  57  CALM    29.96S
#MABTON         N/A         69  55  61  E2      29.98S
#MOXEE 2E       N/A         74  32  21  SW3     29.91F
#NACHES 2SW     N/A         74  51  44  SE1     30.01S
#OUTLOOK DOT    N/A         N/A N/A N/A SW5     N/A
#SELAH 8E       N/A         73  45  37  E8      N/A
#TERRACE HTS    N/A         74  49  41  SW2     29.89F
#TOPPENISH      N/A         73  50  44  W1      29.86F
#WAPATO 4NE     N/A         83  45  26  NE3     30.30S
#W YAKIMA       N/A         74  50  43  SE2     29.92F
#WHITE SWAN 5E  N/A         74  50  43  NE3     29.95F
#WILEY CITY 3W  N/A         73  46  38  CALM    29.98F
$$

WAZ028-222010-
LOWER COLUMBIA BASIN...WASHINGTON

CITY            SKY/WX      TMP DP  RH  WIND    PRES   REMARKS
HANFORD         MOCLDY      76  49  39  N12     29.95S
PASCO           PTCLDY      78  53  42  N12     29.94F
PROSSER AWOS    N/A         68  55  63  S3      30.00S
RICHLAND AWOS   PTCLDY      77  50  39  W15     29.94F
#BASIN CITY 5SW N/A         78  56  47  N6      29.94F
#BENTON CITY    N/A         63  56  78  W2      29.85S
#CONNELL 5N     N/A         77  51  40  NW3     29.89S
#CONNELL 5NW    N/A         76  53  45  N7      29.86F
#ELTOPIA        N/A         77  57  50  NW5     29.88F
#ELTOPIA 6NW    N/A         76  56  50  NW6     28.92F
#KENNEWICK 3S   N/A         76  55  48  CALM    29.93S
#PATERSON       N/A         75  53  46  S7      29.92F
#PROSSER        N/A         67  52  59  CALM    29.95R
#SAGEMOOR 2W    N/A         74  57  55  NW3     29.78F
#TOUCHET 2S     N/A         77  55  47  NW6     29.90F
#WEST PASCO     N/A         77  55  47  NW2     29.92F
$$

WAZ029-222010-
FOOTHILLS OF THE BLUES...WASHINGTON

CITY            SKY/WX      TMP DP  RH  WIND    PRES   REMARKS
WALLA WALLA AP  MOSUNNY     72  51  48  SW13    29.97F
#COLLEGE PLACE  N/A         78  51  39  W2      29.94F
#DAYTON SCHOOL  N/A         71  47  42  NE7     29.94F
#LOWDEN 2SE     N/A         74  55  51  W7      29.91S
#PLEASANT VIEW 1N/A         72  50  46  SW6     29.93F
#PRESCOTT       N/A         74  54  50  W2      29.90F
#SUDBURY        N/A         75  N/A N/A W8      N/A
#WHITMAN COLLEGEN/A         71  54  55  S7      29.96F
#WAITSBURG 8N   N/A         73  41  31  SE7     29.88F
#WALLA WALLA 5E N/A         98  49  19  SE9     N/A    HX 95
#WALLA WALLA U  N/A         74  54  50  CALM    29.91F
$$

WAZ030-222010-
BLUE MOUNTAINS...WASHINGTON

CITY            SKY/WX      TMP DP  RH  WIND    PRES   REMARKS
$$

ORZ009-041-WAZ024-222010-
COLUMBIA RIVER GORGE

CITY            SKY/WX      TMP DP  RH  WIND    PRES   REMARKS
HOOD RIVER AP   SUNNY       73  50  44  W9      29.99S
THE DALLES AP   SUNNY       80  47  31  N9      29.95F
#ARLINGTON AIRPON/A         75  49  40  N3      N/A
#ARLINGTON HS   N/A         78  47  34  S3      29.84S
#MARYHILL 2W    N/A         76  50  40  SE1     N/A
#MOSIER 1S      N/A         76  42  30  NW6     30.03S
#MURDOCK        N/A         76  53  45  NW5     29.96F
#RUFUS DOT      N/A         77  53  43  N12     N/A

$$

ORZ510-222010-
NORTH CENTRAL OREGON

CITY            SKY/WX      TMP DP  RH  WIND    PRES   REMARKS
#CHENOWITH 1W   N/A         69  45  42  NW13    N/A
#COW CYN RST AREN/A         68  41  37  N7      N/A
#DUFUR 9E       N/A         67  45  45  NW5     29.98S
#GRASS VALLEY   N/A         69  43  39  S2      N/A
#GRASS VALLEY 1SN/A         70  46  42  CALM    29.96S
#KENT DOT       N/A         69  41  36  SW2     N/A
#MAUPIN SCHOOL  N/A         76  46  34  CALM    28.85F
#MORO SCHOOL    N/A         71  54  55  CALM    30.01S
#SHANIKO 5WSW   N/A         65  41  41  N9      N/A
#SHANIKO 4NW    N/A         62  40  44  N8      30.05S
#TYGH VALLEY 2NEN/A         75  48  38  SE5     29.93F
#WAPANITIA AIRPON/A         72  46  39  CALM    29.95S
#WASCO DOT      N/A         76  50  40  NW7     N/A
#WASCO AIRPORT  N/A         73  43  34  S1      N/A
#WASCO 5NE      N/A         75  48  38  CALM    29.94S
$$

ORZ511-222010-
CENTRAL OREGON

CITY            SKY/WX      TMP DP  RH  WIND    PRES   REMARKS
BEND AIRPORT    MOSUNNY     64  39  40  N7      30.06S
MADRAS AIRPORT  SUNNY       70  45  41  N5      30.04S
REDMOND AIRPORT SUNNY       69  41  36  VRB6    30.04S
#BEND 6E        N/A         65  39  38  CALM    29.87F
#BEND-AWBREY    N/A         66  41  40  W2      29.92F
#BEND-KIM LN    N/A         69  44  40  N2      30.03S
#CROOKED RVR RANN/A         70  47  44  E8      29.92F
#CULVER         N/A         68  47  47  CALM    29.98F
#LAKE BILLY CHINN/A         67  11  11  W5      30.05F
#POWELL BUTTE 3EN/A         64  47  54  NW7     N/A
#POWELL BUTTE   N/A         70  48  46  NE6     29.68F
#PRINEVILLE 3N  N/A         66  46  48  W12     29.88F
#WARM SPRINGS   N/A         75  48  38  CALM    29.96S


ORZ509-222010-
EAST SLOPES OF OREGON CASCADES

CITY            SKY/WX      TMP DP  RH  WIND    PRES   REMARKS
#BLUE BOX PASS  N/A         60   6  11  W3      N/A
#BLACK BUTTE RNCN/A         68  43  40  CALM    29.93F
#CAMP SHERMAN   N/A         74  40  29  CALM    29.92S
#LA PINE DOT    N/A         68  33  27  SW2     N/A
#LA PINE 4NW    N/A         62  42  48  CALM    29.97F
#LAVA BUTTE DOT N/A         65  39  38  NE1     N/A
#MT BACHELOR-MIDN/A         46  35  65  SE2     N/A
#SISTERS AIRPOR N/A         67  48  50  N5      30.02S
#SISTERS ODOT   N/A         68  N/A N/A SW2     N/A
#SISTERS 1NW    N/A         66  38  36  N6      N/A
#SISTERS 3N     N/A         69  45  42  CALM    N/A
#SUNRIVER       N/A         64  42  45  E2      29.82S
#SUTTLE LK DOT  N/A         59  43  55  CALM    N/A
#TUMALO 3W      N/A         65  39  38  N6      29.83S
#WANOGA BUTTE D N/A         54  37  52  E6      N/A

$$

ORZ044-222010-
LOWER COLUMBIA BASIN...OREGON

CITY            SKY/WX      TMP DP  RH  WIND    PRES   REMARKS
HERMISTON       SUNNY       75  50  41  W6      29.96S
#BOARDMAN SCHOOLN/A         76  51  42  CALM    29.94S
#BOARDMAN 3W    N/A         82  54  38  E2      29.68S
#BOARDMAN 8SW   N/A         76  53  45  N3      29.94F
#ECHO 8SW       N/A         75  50  41  N2      29.95S
#IONE SCHOOL    N/A         72  49  44  NW2     29.97R
#IRRIGON 4NW    N/A         79  52  39  S5      N/A
#UMATILLA SCHOOLN/A         81  61  51  W6      29.98S
#UMATILLA       N/A         78  51  39  CALM    29.92F
$$

ORZ507-222010-
NORTHERN FOOTHILLS OF THE BLUES

CITY            SKY/WX      TMP DP  RH  WIND    PRES   REMARKS
PENDLETON AIRPT PTCLDY      72  46  39  NW9     29.97F
#ADAMS 3WNW     N/A         70  50  49  NW2     29.91F
#ATHENA         N/A         69  50  51  SW6     29.93F
#HELIX SCHOOL   N/A         69  51  53  CALM    29.91S
#HELIX 3N       N/A         69  50  51  N7      29.95S
#HELIX 6SW      N/A         70  50  49  W7      29.97S
#HOLDMAN 5SE    N/A         73  52  48  NW3     29.97F
#HOLDMAN 6E     N/A         70  50  49  NE7     29.74S
#M-F GROVE ELEM N/A         72  49  44  NW1     29.95S
#M-FREEWATER 5SEN/A         71  53  53  CALM    29.96F
#PDT AQUATIC CTRN/A         72  48  43  W3      29.96S
#PENDLETON DNTN N/A         74  45  35  N2      29.92S
#PDT SUNRIDGE   N/A         72  49  44  W7      29.97F
#PENDLETON 7NW  N/A         72  54  53  SW2     25.33S
#PILOT ROCK     N/A         70  47  44  CALM    29.99F
#TUTUILLA       N/A         73  52  48  NW6     29.87S
#UMAPINE 2E     N/A         75  57  54  NW2     29.92F
#WESTON SCHOOL  N/A         68  48  49  N2      29.94S

$$

ORZ508-222010-
SOUTHERN FOOTHILLS OF THE BLUES

CITY            SKY/WX      TMP DP  RH  WIND    PRES   REMARKS
LEXINGTON       MOSUNNY     73  45  37  NE3     30.01S
#AJAX           N/A         70  43  38  NE2     29.95S
#CONDON SCHOOL  N/A         68  48  49  N5      29.99R
#CONDON 5W      N/A         64  43  46  N7      30.01S
#FOSSIL SCHOOL  N/A         67  44  43  W3      29.99S
#HEPPNER 4NE    N/A         67  44  43  N5      29.92S
#LEXINGTON 2SE  N/A         73  48  41  N8      29.95S
#MIKKALO        N/A         72  45  38  NE1     30.00S
#OLEX 4N        N/A         73  49  43  CALM    29.97S
#RUGGS 5NE      N/A         70  43  38  VRB7    30.17S
#RUGGS 2SW      N/A         68  43  40  N7      29.97R

$$

ORZ502-503-222010-
BLUE MOUNTAINS

CITY            SKY/WX      TMP DP  RH  WIND    PRES   REMARKS
MEACHAM         CLOUDY      63  48  58  VRB3    30.03S
#BATTLE MTN DOT N/A         63  51  65  N5      N/A
#HARDMAN 10S    N/A         63  41  44  N2      30.10
#HEPPNER 15SE   N/A         64  45  50  W5      29.96S
#LADD CYN SMT   N/A         66  41  40  NW10    N/A
#LADD CREEK ODOTN/A         68  48  49  NE14    N/A
#LONG CREEK HS  N/A         63  44  50  N9      N/A
#N POWDER DOT   N/A         68  49  51  N18     N/A
#PIKES PEAK     N/A         60  50  69  SW17G26 27.99S
#TOLLGATE       N/A         57  48  72  E3      29.98F
#TOLLGATE 9W    N/A         59  46  62  W3      N/A
#TROY SCHOOL    N/A         77  49  37  E1      29.70F
#UKIAH          N/A         66  44  45  NW10    29.96F
#WESTON 4E      N/A         64  49  58  SW5     29.85S
$$

ORZ505-222010-
JOHN DAY BASIN

CITY            SKY/WX      TMP DP  RH  WIND    PRES   REMARKS
JOHN DAY        PTCLDY      68  40  36  NW10    30.01F
#JOHN DAY KJDY  N/A         74  38  27  NW2     30.08F
#MONUMENT HS    N/A         72  44  37  S2      29.98F
#MT. VERNON 5SE N/A         63  41  44  W2      29.98S
#WINLOCK        N/A         69  40  35  SW7     30.09F
$$

ORZ506-222010-
OCHOCO AND JOHN DAY HIGHLANDS

CITY            SKY/WX      TMP DP  RH  WIND    PRES   REMARKS
#BUCK CREEK DOT N/A         65  44  46  N10     N/A
#HORSE RIDGE DO N/A         63  37  38  N10     N/A
#KEYES SMT DOT  N/A         62  41  46  NW9     N/A
#PAULINA SCHOOL N/A         67  35  30  NE3     30.03S
#PRAIRIE CITY   N/A         71  45  39  SW3     29.86F
#SENECA 9NW     N/A         61  40  46  CALM    29.85F
$$

ORZ049-222010-
GRANDE RONDE VALLEY

CITY            SKY/WX      TMP DP  RH  WIND    PRES   REMARKS
LA GRANDE       SUNNY       73  43  34  NW13    29.96F
#COVE           N/A         71  50  47  NW5     29.88F
#COVE SCHOOL    N/A         70  45  41  SW3     29.94F
#COVE 6NW       N/A         69  46  44  W7      29.91F
#ELGIN 3N       N/A         71  43  36  E1      29.69F
#ELGIN 1E       N/A         72  44  37  CALM    N/A
#IMBLER SCHOOL  N/A         69  49  49  NW6     29.92F
#ISLAND CITY 4N N/A         74  47  38  S1      29.80F
#LADD CYN DOT   N/A         70  47  44  NW12    N/A
#LA GRANDE ELEM N/A         69  48  47  W7      29.95F
#UNION 1S       N/A         69  46  44  N5      29.78F
$$

ORZ050-222010-
WALLOWA COUNTY

CITY            SKY/WX      TMP DP  RH  WIND    PRES   REMARKS
JOSEPH AIRPORT  PTCLDY      68  36  31  NW6     30.01F
#ENTERPRISE AP  N/A         66  34  30  W3      29.94F
#ENTERPRISE HS  N/A         66  42  42  W3      29.99F
#IMNAHA SCHOOL  N/A         76  39  26  N7      29.83F
#IMNAHA 10S     N/A         73  41  31  NE6     29.93F
#JOSEPH 3N      N/A         64  40  41  W3      30.01F
#JOSEPH 3W      N/A         64  38  38  E3      29.86F
#MT HOWARD 8000 N/A         47  36  65  NW5     30.14F
#PROMISE 1S     N/A         64  41  43  W1      30.00R
#SHEEP RDG 7000 N/A         48  36  63  CALM    29.86S
#WALLOWA SCHOOL N/A         70  43  38  CALM    30.77F



$$



USA.gov is the U.S. government's official web portal to all federal, state and local government web resources and services.